Satellite: XATCOBEO
Catalog number: 38082
Epoch time:      12173.78017735
Element set:     336
Inclination:      069.4979 deg
RA of node:       304.9169 deg
Eccentricity:    0.0738749
Arg of perigee:   241.8886 deg
Mean anomaly:     110.5737 deg
Mean motion:   14.16412624 rev/day
Decay rate:     2.6895e-04 rev/day^2
Epoch rev:            1824
Checksum:              343

/EX
SB KEPS @ AMSAT  $ORB12173.W
Orbital Elements  12173.WEATHER

HR AMSAT ORBITAL ELEMENTS FOR WEATHER SATELLITES
FROM WA5QGD FORT WORTH,TX June 21, 2012
Send SUBSCRIBE KEPS/UNSUBSCRIBE KEPS to majordomo@amsat.org only
BID: ORB12173.W
TO ALL RADIO AMATEURS BT

Satellite: NOAA-10
Catalog number: 16969
Epoch time:      12172.66473430
Element set:    0967
Inclination:      098.5797 deg
RA of node:       201.6565 deg
Eccentricity:    0.0011586
Arg of perigee:   221.7915 deg
Mean anomaly:     138.2362 deg
Mean motion:   14.27559368 rev/day
Decay rate:       1.99e-06 rev/day^2
Epoch rev:           34036
Checksum:              338

Satellite: NOAA-11
Catalog number: 19531
Epoch time:      12172.75107517
Element set:    0963
Inclination:      098.7328 deg
RA of node:       257.8354 deg
Eccentricity:    0.0010588
Arg of perigee:   210.7776 deg
Mean anomaly:     149.2776 deg
Mean motion:   14.14970630 rev/day
Decay rate:      -1.56e-06 rev/day^2
Epoch rev:           22501
Checksum:              312

Satellite: NOAA-12
Catalog number: 21263
Epoch time:      12172.97805650
Element set:    0465
Inclination:      098.7289 deg
RA of node:       194.6253 deg
Eccentricity:    0.0013478
Arg of perigee:   186.5061 deg
Mean anomaly:     173.5946 deg
Mean motion:   14.25502176 rev/day
Decay rate:        5.1e-07 rev/day^2
Epoch rev:           09709
Checksum:              318

Satellite: MET-3/5
Catalog number: 21655
Epoch time:      12173.85898759
Element set:     439
Inclination:      082.5561 deg
RA of node:       148.8873 deg
Eccentricity:    0.0012296
Arg of perigee:   314.4327 deg
Mean anomaly:     045.5788 deg
Mean motion:   13.17041161 rev/day
Decay rate:      -1.42e-06 rev/day^2
Epoch rev:             250
Checksum:              313

Satellite: MET-2/21
Catalog number: 22782
Epoch time:      12172.69960133
Element set:    0450
Inclination:      082.5478 deg
RA of node:       029.7283 deg
Eccentricity:    0.0023394
Arg of perigee:   139.6945 deg
Mean anomaly:     220.5938 deg
Mean motion:   13.83684538 rev/day
Decay rate:        2.5e-07 rev/day^2
Epoch rev:           94965
Checksum:              337

Satellite: OKEAN-4
Catalog number: 23317
Epoch time:      12173.88700447
Element set:     920
Inclination:      082.5402 deg
RA of node:       026.8138 deg
Eccentricity:    0.0021193
Arg of perigee:   341.3541 deg
Mean anomaly:     018.6897 deg
Mean motion:   14.83817592 rev/day
Decay rate:       6.92e-06 rev/day^2
Epoch rev:           95550
Checksum:              307

Satellite: NOAA-14
Catalog number: 23455
Epoch time:      12172.93909726
Element set:    0944
Inclination:      098.8276 deg
RA of node:       256.3912 deg
Eccentricity:    0.0008841
Arg of perigee:   314.4843 deg
Mean anomaly:     045.5602 deg
Mean motion:   14.13903979 rev/day
Decay rate:       -5.3e-07 rev/day^2
Epoch rev:           90132
Checksum:              318

Satellite: NOAA-15
Catalog number: 25338
Epoch time:      12172.70776213
Element set:    0304
Inclination:      098.6893 deg
RA of node:       159.5817 deg
Eccentricity:    0.0011699
Arg of perigee:   097.4717 deg
Mean anomaly:     262.7774 deg
Mean motion:   14.25085229 rev/day
Decay rate:       3.27e-06 rev/day^2
Epoch rev:           73335
Checksum:              336

Satellite: RESURS
Catalog number: 25394
Epoch time:      12172.98444323
Element set:    0126
Inclination:      098.3200 deg
RA of node:       161.0218 deg
Eccentricity:    0.0000510
Arg of perigee:   190.4194 deg
Mean anomaly:     169.6976 deg
Mean motion:   14.24289790 rev/day
Decay rate:        1.0e-07 rev/day^2
Epoch rev:           72494
Checksum:              284

Satellite: FENGYUN1
Catalog number: 25730
Epoch time:      12172.90553191
Element set:    0640
Inclination:      098.8466 deg
RA of node:       131.8215 deg
Eccentricity:    0.0020119
Arg of perigee:   356.8723 deg
Mean anomaly:     003.2308 deg
Mean motion:   14.09615405 rev/day
Decay rate:      1.072e-05 rev/day^2
Epoch rev:           67513
Checksum:              274

Satellite: OKEAN-0
Catalog number: 25860
Epoch time:      12173.80813647
Element set:     660
Inclination:      097.9359 deg
RA of node:       136.3563 deg
Eccentricity:    0.0000619
Arg of perigee:   100.3765 deg
Mean anomaly:     259.7514 deg
Mean motion:   14.74224297 rev/day
Decay rate:       4.50e-06 rev/day^2
Epoch rev:           69525
Checksum:              312

Satellite: NOAA-16
Catalog number: 26536
Epoch time:      12172.72013117
Element set:    0788
Inclination:      099.0941 deg
RA of node:       214.8979 deg
Eccentricity:    0.0011327
Arg of perigee:   076.0588 deg
Mean anomaly:     284.1831 deg
Mean motion:   14.12751362 rev/day
Decay rate:       1.00e-06 rev/day^2
Epoch rev:           60553
Checksum:              296

